[[{"header":{"parameterUnit":"m.s-1","parameterCategory":1,"la1":30.2992,"la2":30.254,"lo1":-89.0895,"lo2":-89.0443,"dy":0.0025,"dx":0.0025,"nx":19,"ny":19,"refTime":"2026-03-07T03:00:00:Z","depth":0,"parameterNumber":2,"parameterNumberName":"U-component_of_WINDS"},"data":[0,0,0,-0.8722,-0.8721,-0.8652,-0.8651,-0.8573,-0.8573,0,0,0,0,0,0,0,0,0,0,0,-0.875,-0.875,-0.8723,-0.8721,-0.8652,-0.8651,-0.8573,-0.8572,0,0,0,0,0,0,0,0,0,0,0,-0.8751,-0.875,-0.875,-0.8721,-0.8652,-0.8651,-0.8573,-0.8622,0,0,0,0,0,0,0,0,0,0,-0.8687,-0.872,-0.875,-0.875,-0.872,-0.8652,-0.8651,-0.8624,-0.8619,-0.8609,0,-0.8604,0,-0.8587,-0.8568,-0.8568,0,0,0,-0.8715,-0.8725,-0.87,-0.875,-0.872,-0.8652,-0.8681,-0.8621,-0.8615,-0.8603,-0.8603,-0.86,-0.8586,-0.8568,-0.8567,-0.8537,-0.8537,0,0,-0.8719,-0.8741,-0.8704,-0.8696,-0.8709,-0.8684,-0.8679,-0.8617,-0.8618,-0.8603,-0.8598,-0.8585,-0.8567,-0.8567,-0.8537,-0.8537,0,0,0,-0.8734,-0.8744,-0.872,-0.87,-0.8687,-0.8682,-0.8677,-0.8621,-0.8611,-0.8597,-0.8584,-0.8567,-0.8566,-0.8537,-0.8537,-0.8566,0,0,0,-0.8736,-0.8753,-0.8722,-0.8736,-0.8688,-0.8653,-0.8682,-0.8616,-0.8608,-0.8584,-0.8567,-0.8565,-0.8537,-0.8537,-0.8565,-0.8575,0,0,0,-0.8752,-0.8755,-0.8748,-0.8737,-0.8708,-0.8654,-0.864,-0.8614,-0.86,-0.8568,-0.8565,-0.8536,-0.8537,-0.8564,-0.8574,-0.8574,0,0,0,-0.8776,-0.8773,-0.8749,-0.8741,-0.8709,-0.8673,-0.864,-0.8612,-0.8588,-0.8566,-0.8537,-0.8537,-0.8563,-0.8573,-0.8573,-0.8579,-0.8583,0,0,-0.8785,-0.8775,-0.8769,-0.8745,-0.8719,-0.8682,-0.866,-0.8615,-0.8591,-0.8556,-0.8555,-0.8565,-0.8574,-0.8574,-0.8602,-0.8605,0,0,0,-0.8779,-0.8775,-0.8764,-0.8742,-0.8709,-0.8682,-0.8639,-0.8622,-0.8592,-0.8578,-0.8565,-0.8569,-0.8569,-0.857,-0.8573,-0.8571,-0.8539,-0.8539,-0.8539,-0.8824,-0.8794,-0.8782,-0.8745,-0.8724,-0.8681,-0.8661,-0.8632,-0.8606,-0.8604,-0.8593,-0.8614,-0.8616,-0.8619,-0.8617,-0.8594,-0.8594,-0.8594,-0.8595,-0.8834,-0.8823,-0.8792,-0.8769,-0.8738,-0.8718,-0.8676,-0.8659,-0.8635,-0.8619,-0.8617,-0.8601,-0.8624,-0.8621,-0.8596,-0.8596,-0.8596,-0.8596,-0.8596,-0.8859,-0.8849,-0.8831,-0.8798,-0.8775,-0.8737,-0.8717,-0.8689,-0.8662,-0.866,-0.8646,-0.8645,-0.864,-0.8655,-0.8655,-0.8655,-0.8656,-0.8656,-0.8656,-0.8892,-0.8871,-0.8857,-0.8824,-0.8807,-0.8781,-0.8739,-0.8721,-0.8694,-0.8675,-0.8675,-0.865,-0.8632,-0.8628,-0.8657,-0.8656,-0.8656,-0.8656,-0.8656,-0.8913,-0.8904,-0.8883,-0.8867,-0.8825,-0.8805,-0.8771,-0.8738,-0.8719,-0.871,-0.8686,-0.8677,-0.8664,-0.8662,-0.8658,-0.8693,-0.8693,-0.8693,-0.8693,-0.8933,-0.8925,-0.8898,-0.8874,-0.8846,-0.8813,-0.8791,-0.8758,-0.8723,-0.8709,-0.87,-0.8693,-0.8692,-0.868,-0.8676,-0.8672,-0.871,-0.871,-0.871,-0.8944,-0.8932,-0.8918,-0.8885,-0.8851,-0.8822,-0.88,-0.8772,-0.873,-0.871,-0.8698,-0.8697,-0.8685,-0.8683,-0.8662,-0.8657,-0.8649,0,0]},{"header":{"parameterUnit":"m.s-1","parameterCategory":1,"la1":30.2992,"la2":30.254,"lo1":-89.0895,"lo2":-89.0443,"dy":0.0025,"dx":0.0025,"nx":19,"ny":19,"refTime":"2026-03-07T03:00:00:Z","depth":0,"parameterNumber":3,"parameterNumberName":"V-component_of_WINDS"},"data":[0,0,0,0.7645,0.7645,0.764,0.764,0.7641,0.7641,0,0,0,0,0,0,0,0,0,0,0,0.765,0.765,0.7645,0.7645,0.764,0.764,0.7641,0.7641,0,0,0,0,0,0,0,0,0,0,0,0.765,0.765,0.765,0.7645,0.764,0.764,0.7641,0.7642,0,0,0,0,0,0,0,0,0,0,0.7646,0.7654,0.765,0.765,0.7645,0.764,0.764,0.7642,0.7642,0.7646,0,0.7649,0,0.7645,0.7641,0.7641,0,0,0,0.7642,0.7654,0.7649,0.765,0.7645,0.764,0.7641,0.7642,0.7642,0.7646,0.7649,0.7649,0.7645,0.7641,0.7641,0.7671,0.7671,0,0,0.7643,0.7651,0.7649,0.7649,0.765,0.7642,0.7641,0.7642,0.7646,0.7649,0.7649,0.7645,0.7641,0.7641,0.7671,0.7671,0,0,0,0.7645,0.7652,0.7647,0.7649,0.7648,0.7642,0.7641,0.7646,0.7644,0.7649,0.7645,0.7641,0.7641,0.767,0.7671,0.7693,0,0,0,0.7645,0.7653,0.7647,0.7652,0.7648,0.7647,0.7646,0.7644,0.7644,0.7645,0.7641,0.7641,0.767,0.7671,0.7692,0.7703,0,0,0,0.7649,0.7653,0.7654,0.7653,0.7651,0.7647,0.7644,0.7644,0.7642,0.7641,0.7641,0.767,0.7671,0.7691,0.7701,0.7715,0,0,0,0.7656,0.7673,0.7654,0.7672,0.7651,0.766,0.7644,0.765,0.7653,0.7641,0.767,0.7671,0.769,0.77,0.7713,0.7729,0.7736,0,0,0.7682,0.7676,0.7686,0.7669,0.7684,0.766,0.7678,0.7672,0.7664,0.7669,0.767,0.7692,0.7701,0.7714,0.7767,0.7773,0,0,0,0.7697,0.7705,0.7706,0.7709,0.7704,0.7702,0.7692,0.769,0.7694,0.7668,0.7699,0.7704,0.7712,0.7719,0.7724,0.7731,0.7674,0.7674,0.7674,0.7748,0.7737,0.7753,0.7741,0.7743,0.7733,0.7735,0.773,0.7718,0.7725,0.7728,0.7761,0.777,0.7773,0.7781,0.7733,0.7733,0.7733,0.7733,0.7787,0.7797,0.778,0.779,0.7778,0.7786,0.7777,0.7768,0.7775,0.7758,0.7764,0.7749,0.7779,0.7786,0.7735,0.7735,0.7734,0.7734,0.7734,0.7821,0.7824,0.7821,0.7824,0.7827,0.7814,0.7822,0.781,0.78,0.7806,0.7808,0.7808,0.7808,0.7807,0.7807,0.7807,0.7807,0.7807,0.7808,0.7859,0.7854,0.7862,0.7858,0.7859,0.7858,0.7848,0.7848,0.7846,0.7838,0.7838,0.7826,0.7783,0.7774,0.7809,0.7809,0.7809,0.7809,0.7808,0.7907,0.7894,0.7906,0.7907,0.7902,0.7908,0.7892,0.7894,0.7893,0.7897,0.7884,0.7853,0.7847,0.7843,0.7836,0.7885,0.7885,0.7885,0.7885,0.7938,0.7932,0.7943,0.7945,0.7945,0.7932,0.7948,0.794,0.793,0.7929,0.7919,0.7908,0.7904,0.79,0.7895,0.7888,0.7949,0.7949,0.7949,0.7968,0.7962,0.7977,0.7967,0.7963,0.796,0.7974,0.7978,0.7964,0.7952,0.7928,0.7925,0.7906,0.79,0.789,0.7882,0.7869,0,0]}]]